Temperature
21 20 20 20 19 19 19 18 18 18 18 17 17 17 17 18 17 18 17 17 17 17 17 17 17 17 17 17 17 17 17 16 16 16 16 16 16 16 16 16 16 16 16
20 20 20 20 20 19 19 18 18 18 18 18 17 17 17 18 18 17 17 17 17 17 17 17 17 17 17 17 17 17 16 16 16 16 16 16 16 16 16 16 16 16 16
20 20 20 20 20 19 19 19 18 18 18 17 17 17 17 17 17 17 17 17 17 17 17 17 17 17 17 17 17 17 16 16 16 16 16 16 17 17 17 17 17 16 16
20 20 20 20 19 19 19 19 18 18 18 17 17 17 17 17 17 17 17 17 17 17 17 17 17 17 17 17 16 16 16 16 16 16 16 16 17 17 17 17 17 17 17
20 20 20 20 19 19 19 19 18 18 18 17 17 17 17 17 17 17 17 17 17 17 17 17 17 16 16 16 16 16 16 16 16 16 16 16 17 17 17 17 17 17 17
20 20 20 19 19 19 19 18 18 18 18 17 17 17 17 17 17 17 17 17 17 17 17 17 16 16 16 16 16 16 16 16 16 16 16 16 16 17 17 17 17 17 17
20 20 19 19 19 19 18 18 18 18 17 17 17 17 17 17 17 17 17 17 17 17 17 16 16 16 16 16 16 16 16 16 16 16 16 16 16 17 17 17 17 17 17
19 19 19 19 19 19 18 18 18 17 17 17 17 17 17 17 17 17 17 17 17 17 17 16 16 16 16 16 16 16 16 16 16 16 16 16 16 16 17 17 17 17 17
19 19 19 19 19 19 18 18 18 17 17 17 17 17 17 17 17 17 17 17 17 17 17 16 16 16 16 16 16 15 15 15 15 15 16 16 16 16 16 16 16 17 16
19 19 19 19 19 19 18 18 17 17 17 17 17 17 17 16 16 17 17 17 16 16 16 16 16 16 16 15 15 15 15 15 15 15 15 15 16 16 16 16 16 16 16
19 19 19 19 19 18 18 17 17 17 17 16 16 16 16 16 16 16 16 16 16 16 16 16 16 16 15 15 15 15 15 15 15 15 15 15 15 15 15 15 15 15 15
19 19 19 19 18 18 17 17 17 17 17 16 16 16 16 16 16 16 16 16 16 16 16 16 16 15 15 15 15 15 15 15 15 15 15 15 15 15 15 15 15 15 15
19 19 19 19 18 18 17 17 17 17 16 16 16 16 16 16 16 16 16 16 16 16 15 15 15 15 15 15 15 15 15 15 14 14 14 14 14 14 14 14 14 14 14
19 19 19 18 18 17 17 17 17 16 16 16 16 16 16 16 16 16 16 15 15 15 15 15 15 15 15 15 15 15 14 14 14 14 14 14 14 14 14 14 14 14 14
19 19 19 18 18 17 17 17 17 16 16 16 16 16 16 15 15 15 15 15 15 15 15 15 15 15 15 15 14 14 14 14 14 14 14 14 14 14 14 13 13 13 13
18 18 18 18 18 18 17 17 17 16 16 16 16 16 15 15 15 15 15 15 15 15 15 14 14 14 14 14 14 14 14 14 14 14 13 13 13 13 13 13 13 12 12
17 18 18 18 18 18 17 17 17 16 16 16 16 15 15 15 15 15 15 15 15 14 14 14 14 14 14 14 14 14 14 13 13 13 13 13 12 12 12 12 12 11 11
18 18 18 17 17 17 17 17 17 16 16 16 15 15 15 15 15 15 15 14 14 14 14 14 14 14 13 13 13 13 13 13 12 12 12 12 11 11 11 11 11 10 10
18 18 18 17 17 17 17 17 16 16 16 16 15 15 15 15 15 15 14 14 14 14 13 13 13 13 13 12 12 12 12 12 11 11 10 10 10 10 9 9 9 9 9
17 17 17 17 17 17 17 16 16 16 16 15 15 15 15 15 15 14 14 13 13 13 12 12 12 12 12 11 11 11 11 11 10 10 9 9 9 9 8 8 8 8 7
17 17 17 17 17 16 16 16 16 16 15 15 15 14 14 14 14 14 13 13 12 12 12 11 11 11 11 10 10 10 10 10 10 9 8 8 8 8 7 7 7 6 6
16 16 16 16 16 16 16 15 15 15 15 14 14 14 14 13 13 13 12 12 12 11 11 11 10 10 9 9 9 9 9 9 9 8 7 7 7 7 6 6 6 5 5
15 15 15 15 15 15 15 14 14 14 14 14 13 13 13 12 12 12 11 11 11 11 10 10 9 9 8 8 8 8 8 7 7 7 6 6 6 6 6 5 5 5 4
14 14 14 14 14 14 14 14 13 13 13 13 12 12 12 11 11 10 10 10 10 10 9 9 8 8 8 7 7 7 7 6 6 6 5 5 5 5 4 4 4 4 3
13 13 13 13 13 13 13 13 13 13 13 12 12 11 11 10 10 10 9 9 9 8 8 8 8 7 7 6 6 6 6 5 5 5 5 4 4 4 3 3 3 3 2
12 12 12 12 12 12 12 12 12 12 12 11 11 10 10 10 9 9 8 8 8 7 7 7 7 6 6 6 5 5 5 5 4 4 4 4 3 3 3 3 2 2 2
Wind_Speed
6 6 8 10 11 11 12 13 13 12 10 7 7 6 5 4 4 5 8 10 10 11 9 5 5 5 4 4 5 3 3 2 2 2 2 2 1 1 2 3 3 5 6
5 7 8 9 11 12 13 13 14 13 12 9 7 4 4 3 3 3 5 9 11 11 9 7 6 5 5 5 4 3 3 2 2 2 2 1 2 2 1 2 4 4 4
8 8 9 9 10 12 13 13 13 13 12 10 6 5 4 3 2 3 4 5 9 10 9 9 7 6 5 5 5 5 5 3 1 1 3 3 3 2 2 2 2 3 3
7 8 9 9 10 11 10 10 11 11 11 11 10 10 8 6 6 5 5 4 7 8 9 9 8 6 5 5 5 4 3 4 3 1 1 1 3 2 1 2 1 2 4
7 8 9 9 8 8 9 9 9 10 11 11 12 11 8 6 5 4 6 5 5 6 8 9 7 6 5 5 5 5 4 3 4 3 2 2 1 1 2 1 2 2 2
5 6 6 6 6 6 7 8 9 9 10 11 11 12 11 9 8 7 7 6 4 4 6 7 7 6 5 6 5 5 6 4 3 3 3 3 3 2 2 2 1 2 2
5 6 7 7 7 8 8 8 9 8 9 10 10 11 11 11 11 9 8 7 5 4 6 6 6 5 6 6 6 5 5 5 5 4 2 2 2 2 3 2 1 1 1
6 7 8 8 8 8 8 8 9 8 9 10 9 9 10 8 7 8 7 8 6 6 7 7 7 7 7 7 6 5 4 4 4 4 3 2 2 3 3 3 3 1 1
6 7 7 7 7 7 8 8 8 8 9 9 8 8 8 8 7 7 6 6 5 5 7 7 7 7 7 7 6 4 4 4 4 4 3 2 1 2 2 2 3 4 2
6 7 7 6 6 6 6 6 7 7 7 7 7 7 7 7 7 7 7 7 7 6 8 7 7 7 6 6 6 5 4 5 4 3 3 2 1 1 1 2 2 2 3
6 7 6 6 6 5 6 6 6 6 6 7 6 7 7 7 7 7 7 7 6 7 8 8 7 7 7 7 6 5 6 5 4 3 4 3 2 2 2 2 2 2 2
6 6 6 6 6 5 5 5 5 6 6 7 7 6 6 6 6 6 6 6 6 6 7 7 7 6 6 6 7 7 6 6 5 4 4 3 2 2 1 2 2 1 1
6 6 6 6 6 5 5 5 5 6 6 7 7 6 6 6 6 6 6 6 6 6 6 6 6 6 6 6 6 6 6 5 5 4 4 3 4 3 2 2 2 1 1
7 7 6 5 5 5 5 5 5 5 6 7 7 7 7 6 6 5 5 5 6 6 6 6 6 6 5 5 5 5 5 5 5 4 4 4 4 4 3 3 2 3 3
6 6 6 6 5 5 5 5 5 5 6 7 7 7 6 6 6 6 6 6 6 6 6 6 6 5 4 4 6 6 7 7 8 7 7 7 9 9 7 5 4 4 4
5 6 6 6 6 6 6 5 6 6 7 7 7 7 7 7 7 7 8 7 7 7 7 7 7 6 4 6 9 9 8 8 9 9 8 9 10 13 14 14 12 9 6
3 5 5 5 5 5 6 7 6 6 7 7 7 7 8 8 8 8 9 8 8 8 8 8 8 8 8 11 13 14 10 10 9 8 8 7 8 9 9 13 15 15 15
4 4 4 4 4 4 5 6 6 6 7 7 6 7 8 8 8 9 9 8 8 8 8 8 9 10 10 13 15 16 12 11 10 9 9 9 8 8 9 11 12 12 11
3 3 3 4 5 5 6 7 7 6 6 6 6 7 8 9 9 9 9 9 9 10 9 8 9 11 10 13 14 14 11 11 12 10 10 10 10 11 12 11 11 10 9
3 3 3 4 5 5 6 7 7 7 7 6 6 7 8 9 10 11 10 9 10 10 10 10 9 10 10 12 13 13 10 11 10 9 10 13 13 13 12 10 9 9 7
4 4 4 4 4 5 7 7 6 6 6 8 8 9 9 11 12 12 10 11 11 11 11 12 10 10 10 12 13 12 9 10 10 9 8 9 15 15 15 12 10 9 7
5 5 5 5 4 5 6 7 6 6 8 9 10 10 11 11 11 13 11 11 12 13 12 12 11 9 9 10 12 14 13 11 10 9 7 9 15 15 15 12 12 12 9
5 5 5 6 5 5 6 7 6 8 10 11 11 12 12 12 11 12 12 11 10 10 10 10 9 8 8 9 15 16 16 15 11 9 13 13 14 13 12 14 13 10 7
5 5 6 7 6 6 6 7 8 9 12 13 12 12 13 13 12 10 9 9 9 10 10 10 9 8 8 7 7 8 10 13 12 11 13 15 14 11 10 10 9 7 6
5 6 7 8 7 8 9 9 9 11 13 13 12 12 13 13 13 12 10 10 8 9 10 8 8 9 8 6 8 9 8 8 9 9 7 7 6 7 6 6 6 6 5
6 7 8 9 9 10 10 9 9 11 14 13 12 11 11 11 12 14 14 19 16 18 16 13 11 9 10 11 13 13 13 13 12 9 7 6 5 5 5 5 4 4 5
Wind_Direction
195 174 173 170 167 168 172 176 181 180 174 175 182 176 179 177 178 186 188 188 187 182 175 175 169 165 164 168 155 131 122 107 109 93 55 17 0 255 241 236 233 230 230
172 173 169 174 178 179 180 181 185 181 181 182 179 167 154 163 175 174 184 188 187 182 181 173 172 166 155 152 154 140 129 118 124 128 104 28 346 327 267 236 232 234 228
183 181 178 183 183 186 188 189 186 182 179 174 157 140 123 113 146 171 190 195 188 184 179 177 167 164 163 167 169 158 147 150 139 137 144 150 220 289 316 280 248 237 230
184 180 182 185 189 192 189 185 178 176 175 171 170 169 176 182 189 184 188 188 187 180 177 173 167 166 167 167 171 162 153 148 157 142 111 141 154 159 302 320 299 260 239
186 185 186 188 186 183 182 179 171 173 175 177 178 178 183 182 172 170 176 181 183 177 175 170 166 168 169 170 162 155 158 156 159 162 149 127 96 119 152 267 312 306 261
182 173 170 165 171 170 172 173 172 175 176 179 182 182 183 175 172 181 184 183 178 177 176 172 169 170 167 167 165 161 164 164 156 158 158 158 159 180 171 193 246 281 299
172 162 160 167 170 169 170 171 174 176 175 179 186 188 186 182 185 187 187 181 179 184 185 177 173 171 170 166 158 156 162 165 162 165 170 172 175 162 161 162 177 246 311
168 167 169 168 168 168 166 169 175 176 177 181 187 189 183 184 188 186 181 183 187 188 178 176 177 171 166 164 156 154 162 162 165 169 162 162 176 175 172 164 152 134 345
172 167 160 159 159 162 166 170 172 175 178 180 181 182 179 180 181 178 176 178 178 179 173 171 172 169 164 161 155 156 159 156 160 161 163 165 171 172 177 166 160 154 178
168 161 158 156 152 155 158 162 168 173 172 171 177 177 171 174 174 170 175 177 178 172 167 169 168 164 160 159 155 150 151 149 150 153 152 151 146 138 143 154 153 154 166
174 164 158 151 141 140 147 156 160 158 160 163 163 159 159 161 162 167 173 174 169 166 168 170 166 163 160 158 157 159 157 157 155 156 159 163 148 138 136 129 130 139 153
161 153 152 141 135 140 141 149 156 157 162 157 152 152 152 153 158 163 167 165 165 166 164 160 160 163 164 164 168 170 166 164 166 168 158 162 150 140 142 139 138 151 175
149 142 142 140 142 142 141 145 149 153 151 146 145 146 144 147 155 159 159 156 157 154 150 147 152 158 161 165 169 166 161 160 160 157 155 156 151 148 134 125 124 120 115
158 151 147 148 147 140 137 139 141 142 144 143 144 147 146 146 147 143 140 142 144 145 144 142 147 150 151 151 150 147 140 129 116 111 113 113 123 125 116 99 89 93 88
162 160 158 158 153 143 142 146 144 141 140 140 145 147 139 132 128 125 123 120 121 127 127 124 121 121 128 139 137 130 123 112 100 88 84 86 91 92 91 91 86 92 92
169 166 162 164 161 156 156 154 153 148 142 143 146 140 135 134 130 124 118 112 106 103 105 107 107 98 93 105 113 114 108 103 100 94 83 77 75 80 79 77 74 77 85
140 157 160 165 167 165 163 167 161 151 147 148 149 146 142 138 134 127 119 117 112 103 96 94 94 89 84 93 99 99 100 97 93 90 86 82 75 74 79 74 69 64 63
129 140 148 157 157 152 151 148 148 150 149 147 148 147 143 137 131 125 122 115 107 103 97 93 92 89 84 90 97 99 95 91 84 80 83 86 76 75 82 83 75 67 60
129 144 155 154 147 147 146 138 140 141 140 142 146 145 142 137 131 125 119 112 106 98 92 89 92 93 88 88 96 98 97 91 82 76 74 81 79 75 82 86 82 73 64
85 105 114 120 131 135 139 140 144 144 150 148 140 135 134 131 127 121 114 107 106 103 97 87 84 90 91 89 92 97 101 97 91 78 71 72 78 74 76 82 86 80 64
57 73 92 102 115 127 132 135 139 146 139 127 120 117 118 120 120 114 112 112 107 102 96 90 81 77 81 85 86 92 102 107 101 91 81 76 80 77 74 75 78 84 83
53 63 81 82 87 111 125 126 130 125 118 115 114 112 111 112 113 112 110 108 108 104 99 94 84 71 68 74 83 84 88 97 101 99 94 89 84 80 77 77 78 77 74
54 57 75 78 74 88 116 123 117 116 117 114 112 110 105 102 106 110 113 110 107 106 102 98 92 81 72 70 75 82 86 88 92 95 96 89 83 79 76 72 70 68 67
66 69 77 80 73 75 89 101 109 115 114 112 110 108 105 100 95 93 97 102 106 107 105 103 99 90 78 75 80 85 89 89 91 93 89 81 73 70 68 65 61 61 63
71 78 87 88 82 81 84 91 104 113 109 107 105 102 101 101 94 84 75 84 77 104 112 109 107 104 97 86 97 106 102 104 107 103 89 79 75 70 66 63 58 55 51
82 85 87 89 87 87 86 87 97 110 111 108 104 102 105 104 103 98 84 68 79 81 85 95 103 91 100 104 99 98 99 102 106 98 94 87 82 78 71 64 54 45 39
Height
1480 1483 1486 1489 1492 1495 1500 1503 1508 1512 1516 1520 1524 1528 1532 1536 1540 1543 1546 1549 1551 1553 1555 1557 1559 1560 1562 1563 1565 1566 1567 1569 1570 1571 1572 1572 1573 1574 1574 1575 1576 1577 1578
1479 1482 1484 1487 1489 1492 1496 1501 1504 1508 1512 1516 1521 1526 1530 1534 1538 1541 1544 1547 1549 1551 1553 1555 1557 1559 1560 1562 1563 1565 1566 1567 1569 1570 1571 1572 1573 1573 1573 1574 1575 1576 1577
1477 1479 1482 1485 1488 1490 1494 1497 1501 1505 1509 1514 1518 1523 1527 1531 1535 1539 1541 1544 1547 1550 1552 1554 1556 1557 1559 1560 1562 1564 1565 1566 1568 1569 1571 1571 1571 1572 1572 1573 1573 1574 1575
1476 1478 1480 1482 1485 1488 1491 1494 1498 1502 1507 1511 1515 1519 1522 1526 1530 1535 1539 1542 1545 1547 1549 1552 1554 1555 1557 1559 1561 1562 1563 1565 1566 1568 1569 1570 1570 1571 1571 1572 1572 1573 1574
1474 1476 1478 1480 1483 1486 1489 1492 1496 1500 1504 1508 1512 1516 1520 1524 1529 1532 1536 1539 1542 1544 1547 1549 1552 1553 1555 1557 1559 1560 1562 1563 1565 1566 1567 1568 1569 1570 1571 1571 1572 1572 1573
1473 1475 1478 1480 1482 1485 1487 1491 1494 1498 1501 1505 1509 1513 1517 1521 1525 1529 1532 1536 1538 1541 1544 1546 1549 1551 1553 1555 1557 1558 1560 1561 1563 1565 1566 1567 1568 1569 1570 1570 1571 1571 1572
1472 1475 1477 1479 1481 1483 1486 1488 1492 1495 1499 1502 1506 1510 1514 1518 1522 1525 1529 1532 1535 1538 1540 1543 1546 1548 1551 1553 1555 1556 1558 1560 1561 1563 1564 1565 1566 1567 1568 1569 1569 1570 1571
1471 1473 1476 1478 1480 1482 1484 1487 1490 1493 1496 1499 1503 1507 1510 1514 1518 1522 1526 1529 1532 1535 1538 1541 1543 1546 1548 1550 1552 1554 1556 1558 1559 1561 1562 1564 1565 1566 1567 1568 1568 1569 1570
1470 1472 1475 1477 1479 1481 1483 1485 1488 1490 1494 1497 1500 1504 1507 1511 1515 1519 1523 1526 1529 1532 1535 1538 1541 1543 1546 1548 1550 1551 1553 1555 1557 1559 1560 1562 1563 1564 1565 1566 1567 1568 1568
1469 1471 1473 1476 1478 1479 1482 1484 1486 1489 1492 1495 1498 1501 1504 1508 1512 1515 1519 1523 1526 1529 1532 1535 1538 1541 1543 1545 1548 1549 1551 1553 1555 1556 1558 1559 1561 1562 1563 1564 1564 1565 1566
1469 1470 1472 1474 1476 1478 1481 1483 1485 1487 1490 1493 1496 1499 1502 1506 1509 1512 1515 1520 1523 1526 1530 1533 1536 1539 1541 1543 1545 1547 1549 1550 1552 1554 1556 1557 1559 1560 1561 1561 1562 1563 1564
1467 1470 1472 1473 1476 1478 1480 1482 1484 1486 1488 1491 1494 1497 1501 1504 1507 1510 1514 1517 1521 1525 1528 1531 1534 1536 1539 1541 1543 1545 1547 1548 1550 1552 1553 1555 1556 1557 1558 1559 1559 1560 1560
1467 1469 1471 1473 1475 1478 1480 1482 1484 1485 1488 1491 1493 1496 1499 1503 1506 1509 1513 1516 1520 1523 1526 1528 1531 1534 1537 1539 1541 1543 1545 1547 1548 1550 1551 1552 1554 1554 1555 1556 1556 1557 1558
1467 1469 1471 1473 1475 1477 1480 1482 1484 1486 1488 1490 1493 1496 1499 1502 1505 1509 1512 1515 1519 1521 1524 1527 1529 1532 1535 1537 1539 1541 1543 1544 1546 1547 1549 1550 1551 1552 1552 1553 1553 1554 1554
1466 1469 1471 1473 1475 1477 1480 1482 1484 1486 1488 1490 1493 1496 1498 1501 1505 1508 1511 1514 1518 1520 1522 1525 1528 1530 1533 1535 1537 1539 1541 1542 1544 1545 1546 1547 1548 1549 1549 1550 1551 1551 1551
1466 1468 1471 1473 1475 1477 1480 1482 1484 1486 1489 1491 1493 1496 1499 1502 1505 1508 1511 1514 1517 1520 1522 1524 1526 1529 1531 1533 1535 1537 1539 1540 1542 1543 1545 1546 1546 1547 1547 1548 1548 1549 1549
1466 1468 1470 1472 1475 1477 1479 1482 1484 1486 1488 1491 1494 1496 1499 1502 1505 1508 1511 1514 1516 1519 1521 1523 1525 1527 1530 1532 1533 1535 1537 1539 1540 1542 1543 1544 1545 1545 1546 1546 1546 1546 1546
1465 1467 1469 1471 1474 1476 1479 1481 1484 1486 1488 1491 1493 1496 1499 1502 1504 1507 1510 1513 1515 1518 1520 1522 1525 1526 1528 1530 1532 1534 1536 1537 1539 1541 1542 1542 1543 1544 1545 1545 1545 1544 1544
1465 1466 1468 1470 1472 1475 1478 1480 1482 1485 1488 1490 1493 1496 1498 1501 1504 1506 1509 1511 1514 1517 1519 1522 1524 1525 1527 1530 1531 1533 1535 1536 1538 1540 1541 1542 1542 1543 1544 1544 1544 1544 1544
1465 1466 1467 1469 1470 1473 1476 1479 1481 1483 1486 1488 1492 1495 1498 1500 1502 1505 1508 1510 1513 1516 1518 1521 1523 1525 1527 1529 1531 1533 1534 1535 1537 1539 1540 1541 1542 1543 1543 1544 1544 1543 1543
1464 1465 1467 1468 1470 1472 1475 1477 1479 1481 1485 1488 1491 1494 1496 1499 1502 1504 1507 1510 1512 1515 1517 1520 1523 1525 1527 1529 1532 1534 1535 1536 1538 1539 1540 1541 1542 1542 1543 1543 1543 1543 1543
1464 1466 1466 1468 1469 1471 1474 1476 1478 1481 1484 1487 1490 1492 1495 1498 1501 1504 1507 1510 1512 1515 1517 1520 1523 1526 1528 1530 1533 1535 1536 1537 1539 1540 1541 1542 1543 1543 1544 1543 1543 1543 1543
1465 1466 1467 1468 1469 1471 1473 1475 1478 1480 1483 1486 1489 1492 1495 1497 1501 1504 1506 1510 1513 1516 1518 1521 1524 1527 1529 1532 1534 1536 1537 1538 1540 1541 1542 1543 1544 1544 1544 1544 1544 1543 1543
1465 1466 1467 1468 1470 1471 1473 1475 1477 1480 1483 1485 1489 1492 1494 1498 1502 1505 1508 1511 1514 1517 1520 1523 1526 1528 1531 1533 1535 1537 1539 1540 1541 1543 1544 1545 1545 1545 1545 1545 1544 1543 1543
1466 1467 1468 1470 1471 1472 1474 1476 1478 1480 1483 1486 1489 1492 1496 1499 1503 1506 1510 1514 1517 1520 1523 1526 1529 1531 1533 1536 1538 1539 1541 1542 1543 1544 1546 1546 1547 1547 1546 1546 1545 1544 1543
1468 1469 1470 1471 1473 1474 1475 1477 1480 1482 1484 1487 1491 1495 1498 1502 1505 1508 1512 1517 1521 1525 1528 1530 1532 1535 1537 1538 1540 1542 1543 1544 1545 1546 1547 1547 1548 1547 1547 1547 1546 1545 1543